{"data":{"norad_id":68792,"intl_designator":"2026-088A","name":"FSI-SAT2","alt_names":[],"object_type":"PAYLOAD","status":"ACTIVE","operator":null,"country":"JPN","launch_date":"2026-04-23","launch_site_code":"RLLB","launch_vehicle":null,"mission":null,"orbit_class":"UNKNOWN","rcs_meters":null,"size_class":null,"mass_kg":null,"dimensions":null,"purposes":[],"wikipedia_slug":null,"has_3d_model":false,"image_url":null,"decayed_at":null,"tle_current":{"epoch":"2026-05-24T21:49:11.705664Z","epoch_age_seconds":78817,"freshness":"FRESH","line1":"1 68792U 26088A   26144.90916326  .00004065  00000+0  27789-3 0  9999","line2":"2 68792  97.5034 294.7608 0014625 182.1544 177.9623 15.06604175  4780","mean_motion":15.06604175,"eccentricity":0.0014625,"inclination_deg":97.5034,"raan_deg":294.7608,"arg_perigee_deg":182.1544,"mean_anomaly_deg":177.9623,"bstar":0.00027789,"rev_number":478,"period_min":95.579185554826,"perigee_km":536.45845445573,"apogee_km":556.71326882603,"semimajor_km":6924.7228616409,"source":"CELESTRAK","updated_at":"2026-05-25T13:38:08.087094Z"}}}